Location: Hamburg
(53.5500°N, 10.0000°E)
Time: 10:37:03
(UTC+01:00)

Daily predictions for brighter satellites

Satellite Brightness Start Highest point End
(mag) Time Altitude Azimuth Time Altitude Azimuth Time Altitude Azimuth
YAOGAN 1 3.2 18:20:18 10° S 18:24:36 64° WSW 18:28:56 10° NNW
Cosmos 1733 Rocket 3.0 18:20:33 10° S 18:24:52 77° E 18:29:13 10° NNE
Cosmos 2082 Rocket 4.3 18:22:35 10° NNW 18:25:12 13° N 18:27:50 10° NNE
Meteor 1-4 Rocket 4.4 18:25:34 10° ESE 18:26:48 11° E 18:28:03 10° ENE
USA 116 4.5 18:22:02 10° NNE 18:27:26 87° ESE 18:32:27 10° SSW
Okean 1 3.5 18:24:20 10° N 18:28:15 51° ENE 18:32:08 10° SSE
Meteor 1-25 Rocket 4.4 18:23:15 10° SSE 18:28:33 49° E 18:33:56 10° NNE
CZ-2D R/B 4.4 18:25:53 10° ESE 18:29:04 24° ENE 18:32:16 10° N
ATLAS CENTAUR R/B 1.7 18:28:38 10° NW 18:32:35 49° NE 18:36:46 10° ESE
DNEPR-1 R/B 3.6 18:30:02 10° SW 18:34:14 88° SE 18:38:54 10° NE
SKYMED 2 3.5 18:31:18 10° NNE 18:35:40 70° ESE 18:39:59 10° S
USA 186 3.6 18:33:41 10° E 18:35:44 16° ENE 18:37:47 10° NNE
Cosmos 1943 3.5 18:31:21 10° NNW 18:36:53 49° NE 18:42:22 10° SE
FENGYUN 3A 4.1 18:34:38 10° S 18:40:01 68° WSW 18:45:28 10° NNW
NOSS 3-2 (C) 3.6 18:34:48 10° SW 18:40:56 86° SE 18:47:54 10° NE
Cosmos 1975 Rocket 3.2 18:37:38 10° N 18:42:00 52° ENE 18:46:22 10° SSE
EO 1 Del DPAF 3.6 18:40:39 10° NNE 18:44:19 41° E 18:47:57 10° S
Landsat 4 3.9 18:41:03 10° NNE 18:44:43 49° E 18:48:23 10° S
YAOGAN 6 4.2 18:45:29 12° E 18:47:25 17° ENE 18:49:50 10° NNE
SPOT 3 Rocket 3.7 18:42:29 10° SSE 18:47:42 80° WSW 18:52:59 10° NNW
SeaSat 1 2.7 18:44:07 10° ESE 18:48:51 49° NE 18:53:37 10° NNW
CZ-4 R/B 4.0 18:48:54 10° SSW 18:52:11 25° W 18:55:28 10° NW
CENTAUR R/B 2.7 18:46:40 10° SSW 18:52:42 57° SE 18:59:40 10° NE
Cosmos 1633 2.4 18:49:31 10° S 18:53:05 78° E 18:56:42 10° NNE
CZ-4C R/B 2.8 18:49:22 10° NW 18:56:07 73° NE 19:03:52 10° ESE
Cosmos 2227 Rocket 2.7 18:50:45 10° SW 18:56:21 64° NW 19:02:01 10° NNE
SL-16 R/B 3.9 18:52:58 10° NW 18:58:06 36° WSW 19:03:11 10° S
FengYun 1-2 T 4.2 18:53:47 10° SSE 18:59:18 88° ENE 19:04:50 10° NNW
Cosmos 1437 Rocket 3.1 18:56:20 10° S 19:00:16 47° E 19:04:15 10° NNE
USA 267 3.4 18:54:31 13° E 19:00:30 72° N 19:07:00 10° WNW
Cosmos 1378 Rocket 4.2 18:56:14 10° NNW 19:00:36 60° W 19:04:58 10° S
DMSP B5D1-3 4.5 18:56:49 10° NNE 19:01:58 72° ESE 19:07:07 10° S
MTI 3.8 19:00:57 10° NNE 19:04:10 80° WNW 19:07:22 10° SSW
Cosmos 1536 4.1 19:03:56 10° SE 19:07:00 21° E 19:10:05 10° NE
Cosmos 2297 Rocket 2.8 19:04:02 10° SW 19:09:38 60° NW 19:15:16 10° NNE
Alouette 2 Rocket 4.3 19:06:46 10° SE 19:09:44 24° E 19:13:11 10° NE
Aureole 3 4.2 19:06:33 10° SSW 19:11:30 61° WNW 19:15:25 10° N
Cosmos 1536 Rocket 4.1 19:08:20 10° N 19:12:29 37° ENE 19:16:11 12° SE
Resurs 01 Rocket 2.1 19:08:29 10° SE 19:12:31 38° ENE 19:16:38 10° N
CRYOSAT 2 4.5 19:07:52 10° NNE 19:12:39 51° E 19:17:23 10° SSE
Envisat 3.0 19:08:45 10° SSE 19:13:45 61° ENE 19:18:47 10° N
Tsikada Rocket 4.1 19:08:43 10° S 19:14:59 59° E 19:21:16 10° NNE
Cosmos 1184 Rocket 2.7 19:12:31 10° N 19:15:47 59° ENE 19:19:01 10° SSE
Cosmos 1603 4.1 19:11:47 10° NW 19:17:24 65° WSW 19:22:57 10° SSE
Cosmos 1025 Rocket 4.2 19:15:50 10° NNE 19:19:17 22° ENE 19:19:49 22° ENE
Cosmos 494 Rocket 4.5 19:15:27 10° S 19:20:11 36° ESE 19:24:54 10° NE
Cosmos 1782 Rocket 3.5 19:15:53 10° S 19:20:17 74° E 19:24:42 10° NNE
ERS-2 2.8 19:19:38 10° S 19:23:17 57° WSW 19:26:56 10° NNW
Cosmos 1110 Rocket 4.3 19:18:00 10° NNW 19:23:17 70° WSW 19:28:34 10° SSE
COSMO-SKYMED 1 3.8 19:19:34 10° N 19:23:43 44° WNW 19:27:51 10° SW
ATLAS 3B R/B 3.5 19:19:16 10° W 19:26:04 47° NNW 19:32:36 10° NE
COSMOS 2455 3.5 19:20:57 10° S 19:26:13 33° ESE 19:30:19 15° ENE
SL-8 R/B 4.3 19:22:55 10° WSW 19:27:26 43° S 19:29:44 25° ESE
Thor Agena Rocket 3.7 19:24:32 10° NNE 19:29:28 46° E 19:34:19 10° S
Cosmos 2263 Rocket 2.9 19:29:21 10° SSE 19:34:08 30° ESE 19:36:51 20° ENE
Meteor 1-13 Rocket 4.3 19:28:44 10° NNW 19:34:18 81° W 19:39:49 10° S
Cosmos 1269 Rocket 3.9 19:29:14 10° SSW 19:34:31 83° ESE 19:39:51 10° NNE
NOSS 3-2 (A) 4.3 19:30:04 10° WSW 19:36:12 53° NNW 19:43:10 10° NE
Iridium 4 Rocket 4.4 19:32:35 10° NNW 19:37:16 46° W 19:41:33 10° SSW
Cosmos 1939 Rocket 3.0 19:35:57 22° SE 19:38:28 56° ENE 19:42:30 10° N
USA 32 4.3 19:33:28 10° SSW 19:38:41 71° W 19:43:56 10° N
Sich 1 Rocket 4.1 19:34:29 10° SSW 19:38:54 61° WNW 19:43:19 10° N
SJ-11-01 4.4 19:37:58 22° SE 19:40:48 52° ENE 19:45:25 10° N
Cosmos 2279 Rocket 4.1 19:35:29 10° N 19:41:35 51° ENE 19:46:18 17° SE
Cosmos 2346 Rocket 4.3 19:40:47 10° S 19:46:56 74° E 19:53:03 10° NNE
ARGOS 4.0 19:46:03 28° ENE 19:46:59 30° ENE 19:51:38 10° N
Okean 2 Rocket 3.0 19:44:23 10° S 19:48:47 88° E 19:53:15 10° NNE
Cosmos 1992 Rocket 4.3 19:43:52 10° NNW 19:48:56 46° NE 19:50:34 35° E
SJ-6B 3.9 19:50:26 10° S 19:54:06 44° W 19:57:53 10° NNW
ERS-1 Rocket 4.0 19:55:44 28° ENE 19:55:44 28° ENE 19:59:59 10° N
Cosmos 2151 Rocket 3.5 19:54:10 10° S 19:58:35 63° E 20:03:01 10° NNE
Meteor 2-4 Rocket 4.2 19:54:43 10° NNW 20:00:29 63° W 20:06:03 10° S
Meteor 1-4 Rocket 2.6 19:57:45 10° SSW 20:01:18 74° WNW 20:04:57 10° N
Spot 2 Rocket 3.4 19:59:44 20° SSE 20:03:16 84° ENE 20:08:24 10° NNW
Cosmos 1634 Rocket 4.1 19:58:01 10° NNW 20:04:12 78° W 20:10:21 10° S
H-2A R/B 3.0 20:04:48 32° ENE 20:04:55 32° ENE 20:09:41 10° N
Cosmos 2227 4.2 19:59:35 10° SSW 20:05:20 88° WNW 20:11:04 10° NNE
USA 215 3.8 20:05:23 34° ESE 20:06:04 34° SE 20:11:54 10° SSW
USA 186 2.5 20:04:41 29° SSW 20:06:08 54° W 20:09:26 10° NNW
ARGOS Delta rocket 3.9 20:03:42 10° N 20:08:37 79° WNW 20:13:14 10° SSW
Meteor 1-5 Rocket 4.2 20:03:10 10° S 20:09:04 71° E 20:15:03 10° NNE
ATLAS CENTAUR R/B 2.9 20:07:44 10° WNW 20:11:30 34° WSW 20:13:55 19° S
Cosmos 2082 Rocket 3.8 20:07:34 10° NNW 20:11:38 20° NNE 20:12:43 19° NE
Cosmos 1174 4.1 20:10:27 10° NW 20:13:53 50° N 20:13:53 50° N
Cosmos 1066 Rocket 4.3 20:12:34 10° N 20:18:24 61° ENE 20:19:38 50° ESE
NOAA 11 4.0 20:18:15 40° SSE 20:20:18 80° ENE 20:25:46 10° NNW
YAOGAN 6 3.2 20:19:54 45° SW 20:20:37 55° W 20:24:10 10° NNW
Cosmos 1943 4.4 20:15:38 10° NW 20:20:52 40° WSW 20:26:06 10° S
Cosmos 2251 Rocket 3.3 20:17:04 10° SSW 20:22:15 69° ESE 20:27:30 10° NNE
SeaSat 1 3.7 20:22:29 13° S 20:26:30 38° WSW 20:31:06 10° NW
Resurs 1-3 4.5 20:24:45 18° S 20:27:49 48° W 20:32:06 10° NNW
Meteor 1-11 Rocket 4.1 20:23:47 10° SSW 20:29:23 66° WNW 20:35:11 10° N
Terra 3.9 20:32:29 15° NNE 20:32:29 15° NNE 20:33:56 10° N
COSMOS 2406 3.3 20:26:28 10° NNW 20:32:05 57° NE 20:32:26 56° ENE
Cosmos 1300 Rocket 4.3 20:40:58 44° N 20:40:58 44° N 20:44:01 10° N
Cosmos 2227 Rocket 4.4 20:37:15 10° W 20:41:32 22° NNW 20:45:51 10° NNE
Cosmos 1536 3.8 20:39:13 10° SSW 20:43:09 47° WNW 20:47:08 10° N
Cosmos 1340 Rocket 3.9 20:39:11 10° NNW 20:41:50 40° NNW 20:41:50 40° NNW
CENTAUR R/B 3.2 20:37:09 10° WSW 20:43:32 56° NNW 20:48:56 19° NE
USA 267 3.3 20:41:51 51° SE 20:43:35 72° SSW 20:50:08 10° WNW
CZ-4C R/B 3.8 20:38:03 10° NW 20:44:36 42° WSW 20:49:37 20° S
Meteor 2-20 4.3 20:45:39 40° S 20:48:03 80° E 20:54:16 10° NNE
Resurs 01 Rocket 3.3 20:46:03 15° SSW 20:49:03 32° W 20:53:04 10° NNW
Okean 2 4.2 20:47:10 10° NNW 20:50:40 49° WNW 20:50:40 49° WNW
MetOp-A 4.0 20:51:50 81° NE 20:51:50 81° NE 20:57:04 10° NNW
Okean 1-7 Rocket 4.4 20:49:48 10° NNW 20:52:51 44° NNW 20:52:51 44° NNW
Cosmos 2297 Rocket 4.4 20:50:40 10° WNW 20:54:53 21° NNW 20:59:07 10° NNE
Cosmos 1025 Rocket 3.8 20:52:57 10° NNW 20:56:45 51° WNW 20:56:45 51° WNW
SPOT 5 3.9 21:04:42 41° NNE 21:04:42 41° NNE 21:08:22 10° N
Cosmos 1833 Rocket 3.9 21:01:44 10° NNW 21:05:56 31° NNE 21:05:56 31° NNE
COSMOS 2455 3.1 21:05:48 10° SW 21:11:49 68° NW 21:13:34 46° NNE
Cosmos 2263 Rocket 2.5 21:12:14 10° SW 21:17:46 61° NW 21:18:48 52° N
ATLAS 3B R/B 3.8 21:11:57 10° WNW 21:18:14 35° N 21:20:01 31° NNE
ARGOS 3.7 21:27:32 56° WNW 21:27:32 56° WNW 21:32:20 10° NNW
ERS-1 Rocket 4.1 21:35:43 41° NW 21:35:43 41° NW 21:39:15 10° NNW
H-2A R/B 3.1 21:45:25 44° NW 21:45:25 44° NW 21:49:29 10° NNW
USA 215 4.3 21:52:45 35° SW 21:52:45 35° SW 21:56:16 10° WSW
Cosmos 2082 Rocket 3.6 21:51:26 10° NNW 21:54:34 32° NNW 21:54:34 32° NNW
Terra 4.2 22:11:22 18° NNW 22:11:22 18° NNW 22:12:38 10° NNW
CENTAUR R/B 3.9 22:29:11 10° WNW 22:35:39 39° N 22:36:09 39° N
ATLAS 3B R/B 4.1 23:03:37 10° NW 23:07:17 31° NNW 23:07:17 31° NNW
